User: anonymous   Login
Location: Étavigny
(49.1201°N, 2.9800°E)
Time: 08:43:50
(UTC+00:00)
Language:

Meteor 2-5 Rocket - Orbit

View from above orbital plane
View from above orbital plane
View from above satellite
View from above satellite

Ground track
Ground track

The orbit data is extracted from the following two-line orbital elements,

1 11608U 79095B   24114.93783474  .00000034  00000-0  13509-4 0  9992
2 11608  81.2108 301.9961 0053480 332.5120  27.3222 14.06345015281573
Epoch (UTC): 23 April 2024 22:30:28
Eccentricity: 0.0053480
inclination: 81.2108°
perigee height: 833 km
apogee height: 910 km
right ascension of ascending node: 301.9961°
argument of perigee: 332.5120°
revolutions per day: 14.06345015
mean anomaly at epoch: 27.3222°
orbit number at epoch: 28157

The dashed part of the orbit path shows where the satellite is in the earth's shadow,  

DLR